OneWeb SL0596

operational
NORAD ID: 54662 Int'l Des: 2022-166 Owner: ONEWEBN Country: UK Constellation: oneweb
LEOCIRCULARPOLARONEWEB_TYPE

关于 OneWeb SL0596

正在加载描述...

实时位置

正在加载3D地球...

即将过境

高度历史

Altitude vs Time

uPlot chart will show altitude changes over time

两行轨道根数

1 54662U 22166W 25299.25238612 .00000087 00000-0 17838-3 0 9991
2 54662 87.9168 290.6617 0001928 86.1705 273.9649 13.21825691140634
Epoch: Oct 26, 2025 • Age: 7 hours

当前状态

高度 1207.5 km
速度 7.25 km/s
星下点 -81.15°S, 48.32°E
发射日期 Dec 8, 2022
运行时间 2.8 years
类型 internet

技术详情

分类 Payload
质量 148.00 kg
干质量 140.00 kg
总质量 148.00 kg
长度 1.30 m
直径 1.00 m
跨度 5.00 m
形状 Trapezoid+2 pan
制造商 ONEWUS
平台类型 ARROW
阶段状态 In Orbit
所有者/国家 ONEWEBN/UK

大型星座

Loading constellations...